Location: ??????
(56.3753°N, 29.6363°E)
Time: 12:23:52
(UTC+00:00)

Daily predictions for brighter satellites

Satellite Brightness Start Highest point End
(mag) Time Altitude Azimuth Time Altitude Azimuth Time Altitude Azimuth
Okean 1 3.9 18:21:58 10° N 18:25:52 44° ENE 18:29:46 10° SE
DMSP B5D2-2 4.1 18:20:41 10° NNE 18:25:57 88° ESE 18:31:12 10° SSW
Cosmos 468 Rocket 4.1 18:23:59 10° NNW 18:29:21 78° ENE 18:34:39 10° SSE
SPOT 3 Rocket 4.1 18:25:03 10° S 18:30:12 60° WSW 18:35:22 10° NNW
Cosmos 1441 Rocket 3.8 18:26:34 10° SSW 18:30:17 62° WNW 18:34:01 10° N
Cosmos 1821 Rocket 4.1 18:24:31 10° SSW 18:30:42 85° W 18:37:03 10° NNE
USA 234 3.4 18:24:32 10° ESE 18:31:06 79° SSW 18:37:41 10° WNW
ATLAS 3B R/B 4.2 18:29:27 10° ESE 18:31:35 12° ESE 18:33:43 10° E
Cosmos 1867 3.8 18:27:26 10° SSW 18:32:38 47° SE 18:37:52 10° NE
CARTOSAT-1 4.3 18:30:17 10° SE 18:34:17 38° ENE 18:38:19 10° N
Meteor 2-4 Rocket 4.4 18:31:24 10° N 18:36:49 42° ENE 18:42:01 10° SE
Cosmos 1933 Rocket 4.3 18:34:43 10° SSE 18:38:45 36° E 18:42:51 10° NNE
Cosmos 1666 Rocket 3.5 18:34:48 10° S 18:39:08 88° ESE 18:43:31 10° NNE
SL-4 R/B 2.6 18:37:06 10° SW 18:40:41 33° SSE 18:44:03 10° E
IGS 5A 3.5 18:40:08 10° SSE 18:44:15 78° ENE 18:48:26 10° NNW
SL-16 R/B 2.3 18:40:56 10° NW 18:46:40 87° ENE 18:52:21 10° SE
Cosmos 2219 Rocket 3.5 18:42:07 10° NNW 18:47:12 32° NNE 18:52:16 10° E
CZ-2C R/B 3.1 18:42:33 10° NNE 18:47:41 64° WNW 18:52:50 10° SSW
MetOp-B 4.3 18:42:53 10° SSE 18:48:16 79° WSW 18:53:41 10° NNW
Cosmos 2123 Rocket 4.4 18:42:42 10° NNW 18:48:53 68° W 18:55:04 10° S
USA 238 DEB 3.9 18:43:22 10° SSW 18:49:41 47° SE 18:56:16 10° NE
Cosmos 1954 Rocket 4.1 18:44:30 10° SSW 18:49:46 64° ESE 18:55:03 10° NNE
USA 238 3.9 18:43:30 10° SSW 18:49:48 46° SE 18:56:23 10° NE
Spot 2 Rocket 3.5 18:46:16 10° SSE 18:51:23 88° ENE 18:56:32 10° NNW
BREEZE-M DEB (TANK) 3.3 18:50:36 10° SW 18:53:21 34° SSE 18:59:52 10° E
Okean 1-7 3.2 18:50:46 10° N 18:55:04 58° ENE 18:59:08 11° SSE
deb Kosmos-1763 4.0 18:51:32 10° SSW 18:55:11 89° NW 18:58:53 10° NNE
Meteor 1-18 Rocket 4.2 18:49:51 10° NNW 18:55:29 84° ENE 19:01:03 10° SSE
Cosmos 1535 Rocket 4.5 18:49:33 10° S 18:55:41 88° E 19:01:51 10° NNE
Cosmos 1703 Rocket 3.6 18:51:31 10° N 18:55:52 65° ENE 19:00:06 10° SSE
Cosmos 1570 Rocket 4.2 18:52:01 10° NNW 18:57:21 68° ENE 19:02:16 12° SE
Cosmos 2082 Rocket 2.2 18:54:57 10° SSW 19:00:38 85° ESE 19:06:21 10° NE
CENTAUR R/B 3.1 18:55:09 10° S 19:00:41 37° ESE 19:07:06 10° ENE
COSMOS 2406 4.1 18:55:28 10° SW 19:01:07 56° NW 19:06:46 10° NNE
Cosmos 407 Rocket 4.0 18:56:01 10° SW 19:01:17 66° WNW 19:06:33 10° NNE
Meteor 1-25 Rocket 4.2 18:56:19 10° S 19:01:51 69° E 19:07:30 10° NNE
Lacrosse 5 2.8 18:57:30 10° WNW 19:02:08 36° SW 19:06:26 12° SSE
Cosmos 1190 Rocket 4.3 18:58:05 10° SW 19:03:23 74° WNW 19:08:44 10° NNE
Cosmos 1605 Rocket 3.9 18:58:34 10° S 19:04:38 75° E 19:10:45 10° NNE
Terra 2.3 19:01:13 12° SE 19:05:22 49° ENE 19:09:59 10° N
Cosmos 2322 Rocket 2.3 18:59:44 10° NW 19:05:29 86° WSW 19:10:41 13° SSE
Cosmos 2208 Rocket 4.1 19:00:46 10° NNW 19:06:03 68° ENE 19:10:35 14° SE
Cosmos 1763 Rocket 3.8 19:01:54 10° NNW 19:07:13 69° WSW 19:12:26 10° SSE
Cosmos 1633 Rocket 3.6 19:03:33 10° SSW 19:07:56 62° WNW 19:12:21 10° N
Cosmos 1238 Rocket 2.0 19:05:56 10° S 19:08:52 72° E 19:11:56 10° NNE
Cosmos 1140 Rocket 4.0 19:07:47 10° SW 19:13:01 66° WNW 19:18:16 10° NNE
Cosmos 2237 4.3 19:07:23 10° NW 19:13:08 75° NE 19:17:59 15° SE
SL-16 R/B 4.5 19:09:05 10° NW 19:13:14 20° NNE 19:17:23 10° ENE
USA 276 3.8 19:10:59 10° WSW 19:13:24 20° SSW 19:14:46 15° SSE
Cosmos 921 Rocket 4.4 19:12:22 10° NW 19:16:10 33° WSW 19:19:54 10° SSW
Cosmos 2360 Rocket 2.3 19:10:27 10° NNW 19:16:10 73° NE 19:20:54 15° SE
H-2A R/B 3.4 19:14:12 10° NNE 19:18:21 90° N 19:22:30 10° SSW
Cosmos 2242 Rocket 4.0 19:15:16 10° NNW 19:19:40 63° W 19:24:01 10° S
FALCON 9 DEB 3.5 19:19:12 10° WSW 19:22:32 42° SSE 19:25:30 12° E
Cosmos 2084 Rocket 4.2 19:19:32 10° S 19:23:13 30° SE 19:26:59 10° ENE
Cosmos 44 3.8 19:19:28 10° NW 19:24:12 54° SW 19:28:10 16° SSE
Cosmos 1980 Rocket 4.1 19:19:53 10° NW 19:24:16 23° WSW 19:28:38 10° SSW
OBJECT-B 3.9 19:25:25 10° WSW 19:26:36 12° W 19:27:49 10° WNW
Cosmos 1500 3.8 19:25:02 18° SSE 19:27:23 38° E 19:30:53 10° NNE
Cosmos 1459 Rocket 4.4 19:23:40 13° SSE 19:29:10 49° E 19:35:18 10° NNE
SWARM C 4.5 19:27:33 10° N 19:30:54 76° E 19:33:13 18° S
SWARM A 4.2 19:27:38 10° N 19:31:00 83° E 19:33:25 18° S
Cosmos 1602 3.8 19:29:11 10° SSW 19:33:07 82° WNW 19:37:06 10° N
SAR-Lupe-2 3.9 19:30:04 10° NNE 19:33:33 45° E 19:35:52 19° SSE
COSMOS 2428 3.5 19:29:29 10° NNW 19:35:02 46° NE 19:39:52 13° ESE
Cosmos 1470 Rocket 4.2 19:31:21 10° SSW 19:35:42 58° WNW 19:40:02 10° N
USA 267 3.5 19:29:33 10° ENE 19:35:44 43° SE 19:41:54 10° SSW
Cosmos 1666 3.9 19:37:06 20° SE 19:38:31 25° E 19:41:40 10° NNE
Cosmos 44 Rocket 3.7 19:34:29 10° NW 19:39:22 60° NNE 19:43:34 15° ESE
Cosmos 1242 Rocket 3.5 19:37:20 10° N 19:40:43 35° ENE 19:42:36 21° ESE
Cosmos 1833 Rocket 4.0 19:35:25 10° WSW 19:40:47 44° NW 19:46:13 10° NNE
NOSS 3-2 (A) 3.4 19:35:01 10° SW 19:40:56 77° SE 19:47:50 10° NE
Cosmos 2221 Rocket 3.8 19:36:41 10° N 19:41:08 60° ENE 19:44:04 21° SSE
SPOT 5 2.9 19:40:39 16° S 19:44:08 67° WSW 19:48:36 10° NNW
Cosmos 2237 Rocket 3.6 19:39:56 10° NNW 19:44:59 32° NNE 19:50:00 10° E
Cosmos 540 Rocket 3.8 19:40:57 10° NNW 19:46:04 63° WSW 19:49:56 18° S
Cosmos 1437 Rocket 3.8 19:43:10 10° NNW 19:46:45 39° W 19:49:58 12° SSW
Cosmos 405 Rocket 3.3 19:43:46 10° SSW 19:47:25 55° WNW 19:51:10 10° N
SL-27 R/B 2.3 19:46:33 17° S 19:49:01 62° ESE 19:52:18 10° NNE
NOSS 3-2 (C) 3.5 19:44:24 10° SSW 19:50:13 63° SE 19:56:59 10° NE
Cosmos 1378 4.4 19:48:37 10° N 19:51:56 28° ENE 19:53:40 20° ESE
Cosmos 2333 Rocket 2.5 19:47:48 10° NNW 19:53:35 65° NE 19:57:45 19° SE
Lacrosse 4 Rocket 3.0 19:53:40 18° ESE 19:53:42 18° ESE 19:56:36 10° ENE
Resurs 01 Rocket 4.2 19:51:37 10° SW 19:54:25 16° W 19:57:14 10° NW
ERBS 2.1 19:52:04 10° WNW 19:55:24 88° SSW 19:57:24 22° ESE
Cosmos 2061 Rocket 4.2 19:52:30 18° SSE 19:56:55 53° E 20:02:55 10° NNE
Cosmos 1271 Rocket 3.9 19:55:07 10° N 19:58:31 30° ENE 20:00:19 21° ESE
Cosmos 1850 Rocket 4.0 19:53:26 10° SSW 19:58:45 89° ESE 20:04:03 10° NNE
ERS-1 Rocket 3.7 19:56:12 13° S 20:00:30 48° W 20:05:23 10° NNW
Cosmos 1066 Rocket 4.3 19:56:36 10° NNW 20:02:20 66° ENE 20:05:53 23° SSE
Cosmos 841 Rocket 4.2 19:58:46 10° NW 20:03:46 47° WSW 20:07:29 17° S
Meteor 1-11 Rocket 4.0 20:00:05 21° SSE 20:03:47 51° E 20:09:25 10° NNE
Meteor 1-5 Rocket 4.3 20:00:11 15° S 20:05:11 72° E 20:11:04 10° NNE
Cosmos 1802 Rocket 4.1 20:00:36 17° S 20:05:41 69° E 20:11:59 10° NNE
Okean 3 3.8 20:09:33 10° NNW 20:13:49 61° W 20:16:27 22° S
Cosmos 1816 Rocket 4.5 20:08:08 10° NNW 20:14:27 85° ENE 20:18:35 23° SSE
USA 234 3.9 20:10:46 21° SSE 20:14:43 41° SW 20:20:51 10° WNW
Cosmos 2344 4.4 20:06:35 10° WNW 20:14:58 70° NNE 20:26:22 10° ESE
Cosmos 1867 4.2 20:10:51 10° WSW 20:16:14 58° NNW 20:21:40 10° NE
SL-4 R/B 2.2 20:16:16 10° WSW 20:19:50 39° S 20:20:23 36° SSE
ATLAS 3B R/B 2.9 20:14:38 11° SSW 20:20:39 46° SE 20:26:57 10° NE
COSMOS 2487 3.2 20:21:58 32° ESE 20:22:13 33° ESE 20:25:21 10° NE
Spot 4 3.9 20:24:31 28° SE 20:27:03 69° ENE 20:31:54 10° NNW
Cosmos 1869 Rocket 4.1 20:23:52 14° SSW 20:27:40 59° WNW 20:32:08 10° N
Meteor 1-23 Rocket 4.3 20:22:16 10° NNW 20:28:09 90° WSW 20:31:37 26° SSE
Iridium 4 Rocket 3.2 20:25:27 21° SSW 20:28:11 66° W 20:32:21 10° N
SL-16 R/B 3.9 20:25:46 10° NW 20:30:09 23° WSW 20:34:14 11° SSW
Cosmos 2219 Rocket 2.2 20:26:07 10° NW 20:31:51 88° WSW 20:35:05 27° SSE
NOSS 0 Rocket 4.2 20:26:04 10° NW 20:32:19 67° NE 20:36:37 21° SE
JB-3 4.3 20:28:54 10° NNE 20:32:57 88° WNW 20:35:11 26° SSW
MOS 1-B Rocket 3.9 20:30:41 10° NNE 20:36:18 58° ESE 20:39:23 26° S
Cosmos 1536 2.7 20:36:28 34° S 20:38:09 80° E 20:42:09 10° NNE
ATLAS 5 CENTAUR R/B 3.0 20:35:39 10° W 20:38:15 31° SW 20:39:34 26° S
Cosmos 2322 3.9 20:33:04 10° NW 20:38:41 62° WSW 20:41:39 28° S
Cosmos 1674 Rocket 3.5 20:34:46 10° NNW 20:39:08 84° W 20:41:02 33° S
Tsikada Rocket 4.1 20:33:06 10° NNW 20:39:29 77° W 20:43:25 25° S
USA 238 DEB 4.0 20:33:41 10° WSW 20:40:26 72° NNW 20:47:33 10° NE
USA 238 4.0 20:33:48 10° WSW 20:40:33 72° NNW 20:47:40 10° NE
Terra 3.2 20:40:06 15° SSW 20:43:20 32° W 20:47:36 10° NNW
Cosmos 2082 Rocket 4.1 20:40:17 10° W 20:45:22 32° NNW 20:50:28 10° NNE
Cosmos 1833 4.2 20:42:36 23° S 20:46:05 62° ESE 20:51:41 10° NE
Cosmos 1842 4.0 20:43:07 10° N 20:46:54 42° ENE 20:48:12 31° ESE
Cosmos 489 Rocket 4.5 20:41:24 10° NNW 20:47:45 79° WSW 20:51:15 28° SSE
EO 1 Del DPAF 4.0 20:44:39 10° NNE 20:48:10 35° E 20:48:44 33° ESE
Cosmos 2322 Rocket 4.0 20:44:39 10° NW 20:48:48 21° WSW 20:52:29 12° SW
CENTAUR R/B 2.8 20:44:24 10° WSW 20:50:48 82° NW 20:58:28 10° NE
Okean 2 3.7 20:50:11 10° N 20:54:15 56° ENE 20:55:39 36° SE
Geosat 4.2 20:53:03 31° S 20:55:20 62° WSW 21:00:21 10° NW
Cosmos 1486 Rocket 4.2 20:53:33 32° S 20:55:43 54° ESE 21:00:48 10° NE
SL-16 R/B 3.4 20:53:42 10° NNW 20:59:00 37° NE 21:04:16 10° ESE
FALCON 9 DEB 3.7 20:55:53 10° W 20:58:46 41° SW 20:58:46 41° SW
ALOS 2 2.7 20:57:42 36° SE 20:59:25 71° ENE 21:03:49 10° NNW
Cosmos 1733 Rocket 3.1 20:57:31 30° SSW 20:59:40 78° WNW 21:04:07 10° N
Cosmos 2360 Rocket 3.5 20:54:56 10° NW 20:59:45 29° WSW 21:02:39 19° SSW
Cosmos 2084 Rocket 3.6 20:58:10 10° WSW 21:02:25 73° NNW 21:06:49 10° NE
MTI 4.5 21:03:51 10° N 21:06:53 47° WNW 21:07:51 33° WSW
Cosmos 1975 3.6 21:07:59 34° ESE 21:08:47 38° E 21:12:34 10° NNE
Cosmos 1725 Rocket 4.2 21:04:43 20° SSW 21:09:18 69° WNW 21:15:39 10° N
Cosmos 773 Rocket 4.0 21:07:05 10° NNW 21:12:16 73° ENE 21:14:44 31° SE
Cosmos 1666 3.8 21:11:57 21° SW 21:13:58 38° WNW 21:17:32 10° N
Cosmos 1242 Rocket 4.1 21:12:23 10° NW 21:15:29 27° W 21:16:36 22° WSW
USA 267 3.2 21:12:44 10° ENE 21:19:19 80° SSE 21:25:54 10° WSW
COSMOS 2428 3.1 21:13:54 10° NW 21:19:28 52° WSW 21:21:52 32° S
Cosmos 968 Rocket 3.4 21:18:04 34° S 21:20:15 70° ESE 21:25:23 10° NNE
Cosmos 44 Rocket 4.0 21:16:11 10° NW 21:20:51 41° SW 21:22:15 33° SSW
Cosmos 1980 3.7 21:15:43 10° NW 21:21:26 88° NE 21:24:20 31° SE
Cosmos 2297 Rocket 3.7 21:20:13 18° ESE 21:21:30 20° E 21:25:29 10° NE
Cosmos 1538 Rocket 4.3 21:18:03 10° NNW 21:23:13 62° ENE 21:25:57 27° SE
Cosmos 1607 4.2 21:17:45 10° NW 21:24:14 75° NE 21:29:33 16° ESE
Cosmos 1782 Rocket 3.9 21:23:22 39° SE 21:24:28 49° E 21:28:41 10° NNE
Helios 1A 3.4 21:22:59 34° SE 21:24:31 55° ENE 21:28:41 10° N
Cosmos 1378 4.2 21:23:53 10° NNW 21:27:19 34° W 21:28:16 29° SW
Cosmos 1743 2.8 21:28:20 44° SSW 21:29:27 74° WNW 21:33:23 10° N
Cosmos 2237 Rocket 2.1 21:24:02 10° NW 21:29:44 87° SW 21:32:28 32° SSE
ERBS 3.8 21:28:27 10° W 21:30:18 25° WSW 21:30:18 25° WSW
Lacrosse 4 Rocket 1.3 21:29:55 31° SW 21:31:53 87° NW 21:36:04 10° NE
Cosmos 1908 Rocket 3.5 21:30:25 42° SSW 21:31:53 89° WNW 21:36:16 10° NNE
NOSS 3-2 (A) 4.4 21:26:05 10° W 21:32:14 54° NNW 21:39:24 10° ENE
Cosmos 2219 4.4 21:31:18 24° SE 21:32:41 26° ESE 21:37:15 10° NE
Cosmos 1271 Rocket 3.8 21:31:06 10° NNW 21:34:33 33° W 21:35:26 29° SW
Cosmos 2333 Rocket 3.2 21:32:27 10° NW 21:37:36 34° WSW 21:39:44 26° SSW
NOSS 3-2 (C) 4.2 21:35:13 10° W 21:41:21 59° NNW 21:48:30 10° ENE
Timation 2 Rocket 4.4 21:41:09 32° SSE 21:43:12 42° ESE 21:48:49 10° NE
Cosmos 1544 3.1 21:47:21 54° SW 21:48:04 75° WNW 21:51:46 10° N
Cosmos 2233 Rocket 4.5 21:45:58 22° SW 21:50:07 56° WNW 21:56:23 10° N
Cosmos 1437 2.8 21:48:15 10° N 21:51:12 61° ENE 21:51:12 61° ENE
Cosmos 1975 Rocket 3.3 21:47:26 10° NNW 21:51:53 60° W 21:53:12 41° SSW
Thor Agena Rocket 3.9 21:50:23 10° NNE 21:55:24 59° WNW 21:58:13 26° SW
Cosmos 1354 Rocket 4.0 21:53:25 36° SSW 21:55:41 79° ESE 22:01:03 10° NNE
Cosmos 1674 4.0 21:53:36 10° N 21:57:00 32° ENE 21:58:19 25° ESE
COSMOS 2487 4.1 21:55:26 18° WSW 21:57:16 30° NW 22:00:23 10° NNE
Cosmos 1464 Rocket 3.9 21:54:49 33° S 21:57:48 81° E 22:04:01 10° NNE
Cosmos 1300 Rocket 4.2 21:57:17 35° SE 21:58:21 42° E 22:02:27 10° NNE
Nimbus 7 Rocket 4.4 21:57:02 10° NNE 22:02:56 81° WNW 22:06:03 30° SSW
Cosmos 1680 Rocket 4.2 21:58:17 10° NNW 22:03:25 52° NE 22:07:04 19° SE
CZ-2D R/B 4.4 22:00:52 10° NE 22:03:29 13° E 22:06:04 10° ESE
Nadezhda 4 Rocket 4.0 21:58:07 10° NNW 22:04:27 83° W 22:07:27 33° S
Helios 1B rocket 3.8 22:04:14 10° NE 22:07:46 27° E 22:08:42 24° ESE
ATLAS 3B R/B 2.9 22:04:33 10° WSW 22:11:09 70° NNW 22:17:54 10° NE
Cosmos 2227 Rocket 3.0 22:09:37 29° SE 22:11:24 36° ESE 22:16:30 10° NE
Cosmos 1707 2.7 22:07:29 10° NNW 22:11:26 72° W 22:12:09 54° SSW
Okean 2 Rocket 3.3 22:12:54 42° SSE 22:14:12 63° E 22:18:41 10° NNE
Cosmos 1777 Rocket 4.4 22:12:29 36° SSE 22:14:14 51° ESE 22:19:24 10° NE
Cosmos 2219 Rocket 3.7 22:10:53 10° NW 22:15:06 22° WSW 22:16:47 19° SW
Cosmos 1025 Rocket 2.9 22:10:59 10° NNW 22:15:18 82° WSW 22:16:26 48° S
SJ 16-02 3.1 22:18:08 18° ESE 22:19:16 20° E 22:22:26 10° NE
MINOTAUR 4 R/B 3.9 22:20:40 63° SSE 22:21:12 89° WSW 22:24:47 10° NNW
CZ-4 R/B 4.4 22:17:36 10° NNE 22:22:29 51° E 22:24:20 34° SSE
Cosmos 1092 Rocket 3.9 22:17:44 10° NNW 22:24:02 90° ENE 22:27:10 32° S
Cosmos 1626 3.7 22:23:20 10° N 22:26:39 29° ENE 22:28:26 20° ESE
Cosmos 2034 Rocket 4.0 22:26:37 32° SSW 22:29:45 86° WNW 22:36:10 10° NNE
Cosmos 2344 4.4 22:20:54 10° NW 22:29:48 60° SW 22:39:29 17° SSE
Cosmos 724 4.5 22:25:00 10° NW 22:30:59 76° NE 22:37:05 10° SE
Landsat 4 3.9 22:27:21 10° NNE 22:31:08 61° ESE 22:31:50 50° SSE
Cosmos 1503 Rocket 4.5 22:29:01 24° SW 22:32:13 58° NW 22:37:32 10° NNE
Sich 1 Rocket 3.7 22:31:04 40° SW 22:32:31 65° WNW 22:36:54 10° N
ALOS 2 4.3 22:35:05 18° WSW 22:36:14 20° W 22:39:28 10° NW
Cosmos 923 Rocket 4.0 22:30:53 10° NNW 22:36:15 84° WSW 22:38:48 32° SSE
Resurs 1-4 Rocket 3.8 22:37:10 10° NE 22:41:22 23° E 22:44:27 14° SE
CENTAUR R/B 3.7 22:35:41 10° W 22:42:20 52° N 22:50:10 10° ENE
SL-16 R/B 2.2 22:37:52 10° NW 22:43:34 69° WSW 22:46:19 31° SSE
Cosmos 1975 4.3 22:43:44 22° WSW 22:45:21 30° WNW 22:48:58 10° N
Cosmos 2151 Rocket 3.5 22:45:26 44° S 22:46:50 88° E 22:51:16 10° NNE
SL-14 R/B 4.2 22:44:57 10° N 22:48:43 43° ENE 22:50:33 25° SE
Cosmos 1892 Rocket 4.4 22:46:40 10° N 22:51:00 46° ENE 22:53:36 21° SE
Cosmos 2263 Rocket 4.4 22:50:03 10° SE 22:52:43 14° E 22:55:25 10° ENE
Cosmos 1536 Rocket 4.0 22:50:23 10° NNW 22:54:33 46° W 22:55:38 37° SW
SL-16 R/B 2.8 22:52:57 16° SE 22:58:00 68° ENE 23:04:13 10° NNW
PSLV R/B 3.8 22:55:08 10° NNE 22:59:50 79° WNW 23:01:46 36° SSW
Cosmos 1655 Rocket 4.3 22:53:54 10° N 23:00:09 63° ENE 23:04:51 18° SSE
CZ-4C R/B 4.2 22:58:24 22° SE 23:00:19 41° ENE 23:03:50 10° N
Helios 1A 4.4 22:59:36 23° WSW 23:00:22 24° W 23:03:50 10° NW
USA 267 3.3 22:55:54 10° E 23:02:28 85° N 23:09:02 10° W
KORONAS-FOTON 3.8 22:59:42 10° NNW 23:03:27 62° W 23:04:15 48° SSW
Uosat 12 SS-18 rocket 4.1 23:02:10 37° SSW 23:03:56 72° SE 23:08:18 10° NE
DELTA 2 DEB (DPAF) 4.3 23:02:23 27° SSE 23:04:44 71° ENE 23:09:12 10° NNW
Cosmos 2297 Rocket 2.1 23:02:01 32° SSW 23:04:46 83° ESE 23:10:28 10° NE
Meteor 1-15 Rocket 4.2 23:05:38 31° S 23:08:24 79° ESE 23:14:00 10° NNE
Lacrosse 4 Rocket 3.4 23:07:31 10° W 23:11:06 26° NNW 23:14:37 10° NNE
Cosmos 2237 Rocket 3.6 23:08:56 10° NW 23:13:05 21° WSW 23:14:15 20° WSW
Meteor 1-24 Rocket 3.6 23:08:09 10° NNW 23:13:39 87° ENE 23:16:49 26° SSE
Cosmos 1461 3.8 23:13:38 32° SSE 23:14:53 40° SE 23:19:12 10° ENE
ADEOS II 4.1 23:11:17 10° NE 23:15:04 20° E 23:18:51 10° SE
Cosmos 2219 3.2 23:13:13 28° SW 23:16:19 78° NW 23:21:59 10° NE
Cosmos 2026 Rocket 4.2 23:12:07 10° NNW 23:18:02 55° W 23:21:07 28° SSW
IRAS Rocket 4.2 23:16:04 21° SSE 23:19:57 88° ENE 23:25:38 10° NNW
Cosmos 1603 3.8 23:18:15 10° NW 23:24:03 83° NE 23:29:47 10° SE
Cosmos 2279 Rocket 4.0 23:20:54 26° S 23:24:34 77° E 23:30:48 10° NNE
Cosmos 2112 Rocket 4.2 23:24:57 10° NW 23:30:01 51° WSW 23:32:21 29° S
Cosmos 1726 4.5 23:27:55 10° SE 23:30:21 17° E 23:32:48 10° NE
Timation 2 Rocket 4.3 23:26:07 18° WSW 23:30:34 58° NW 23:36:30 10° NE
Cosmos 158 Rocket 4.5 23:26:15 10° NW 23:31:21 45° WSW 23:33:36 29° SSW
Cosmos 990 Rocket 4.4 23:29:02 26° S 23:31:40 52° ESE 23:36:40 10° NE
Cosmos 1674 3.6 23:29:12 10° NNW 23:32:31 30° W 23:33:07 29° WSW
USA 229 DEB 4.3 23:32:46 23° S 23:36:22 42° ESE 23:42:48 10° NE
USA 229 4.3 23:32:52 23° S 23:36:27 41° ESE 23:42:51 10° ENE
Cosmos 1634 Rocket 4.2 23:35:14 26° SSW 23:38:51 63° WNW 23:45:02 10° N
Cosmos 1340 Rocket 3.9 23:37:29 20° SSE 23:39:38 36° E 23:43:16 10° NNE
COBE Rocket 4.1 23:36:41 14° SSE 23:40:35 63° ENE 23:45:13 10° N
Cosmos 1898 Rocket 3.8 23:39:48 26° S 23:42:39 58° ESE 23:47:45 10° NE
Helios 1B rocket 3.0 23:39:17 10° N 23:43:13 46° WNW 23:45:01 27° WSW
Cosmos 1943 3.1 23:38:07 10° NW 23:43:48 87° WSW 23:49:26 10° SSE
MOZ.5/SAFIR/RUBIN 5/SL-8 4.0 23:42:14 29° SSW 23:44:22 52° W 23:49:00 10° NNW
CZ-2D R/B 2.5 23:39:13 10° NNE 23:44:41 62° ESE 23:48:16 22° S
Cosmos 1680 Rocket 4.2 23:40:40 10° NW 23:45:25 36° WSW 23:47:20 27° SW
Meteor 2-5 Rocket 4.1 23:40:13 10° NNW 23:45:35 47° W 23:48:23 26° SSW
Cosmos 1766 3.3 23:45:23 35° SW 23:46:52 65° WNW 23:50:44 10° N
NOSS 3-1 (A) 4.4 23:44:33 20° S 23:47:44 35° ESE 23:53:32 10° ENE
Meteor 1-29 3.4 23:46:24 10° N 23:49:46 49° WNW 23:50:57 33° WSW
Okean 1 Rocket 3.6 23:51:41 27° SW 23:53:41 48° WNW 23:57:58 10° N
Meteor 1-22 Rocket 4.1 23:50:36 25° SSW 23:53:46 88° ESE 23:59:14 10° NNE
Cosmos 1953 4.0 23:52:43 11° SSE 23:55:57 29° E 23:59:29 10° NNE
